Regional Weather Roundup
Issued by NWS

Home | Current Version | Previous Version | Graphics & Text | Print | Product List | Glossary On
Versions: 1 2 3 4 5 6 7 8 9 10 11 12 13 14 15 16 17 18 19 20 21 22 23 24 25 26 27 28 29 30 31 32 33 34 35 36 37 38 39 40 41 42 43 44 45 46 47 48 49 50
000
ASUS45 KBOU 040907
RWRCO

WEATHER ROUNDUP FOR COLORADO
NATIONAL WEATHER SERVICE DENVER/BOULDER CO
300 AM MDT WED MAY 04 2016

NOTE: "FAIR" INDICATES FEW OR NO CLOUDS BELOW 12000 FEET WITH NO
SIGNIFICANT WEATHER AND/OR OBSTRUCTIONS TO VISIBILITY.

COZ001>005-013-030-031-041000-
...NORTHWEST COLORADO...

CITY           SKY/WX    TMP DP  RH WIND       PRES   REMARKS
CRAIG          FAIR      33  29  85 S3        30.30S
HAYDEN         FAIR      43  28  56 E10       30.30S
MEEKER         FAIR      38  29  70 E7        30.30S
MOUNT WERNER   NOT AVBL
STEAMBOAT SPGS FAIR      39  29  69 CALM      30.33S
WALDEN         FAIR      30  23  74 SE6       30.39S WCI  24
$$

COZ006>008-011-041000-
...WEST CENTRAL VALLEYS...

CITY           SKY/WX    TMP DP  RH WIND       PRES   REMARKS
GRAND JUNCTION FAIR      49  33  54 SE6       30.20S
MONTROSE       FAIR      47  29  49 SE9       30.28S
EAGLE          FAIR      37  28  70 E3        30.36R
RIFLE          FAIR      43  32  65 CALM      30.27S
DELTA          NOT AVBL
NUCLA          NOT AVBL
$$

COZ017>023-064>068-041000-
...SOUTHWEST COLORADO...

CITY           SKY/WX    TMP DP  RH WIND       PRES   REMARKS
DURANGO        FAIR      39  33  79 N7        30.32S
CORTEZ         FAIR      36  29  75 E5        30.27F
PAGOSA SPRINGS FAIR      38  30  75 CALM      30.38S
TELLURIDE      FAIR      39  27  61 SE9       30.44S
WOLF CREEK PAS FAIR      30  27  86 SW15      30.56S WCI  19
$$

COZ009-010-012-014-032>034-037-058>063-041000-
...CENTRAL COLORADO...

CITY           SKY/WX    TMP DP  RH WIND       PRES   REMARKS
ASPEN          FAIR      38  23  55 S7        30.36R
BUENA VISTA    FAIR      33  26  74 CALM      30.40S
COPPER MTN     NOT AVBL
BERTHOUD PASS  FAIR      27  18  69 N18       30.52F WCI  13
COTTONWOOD PAS FAIR      43   9  24 SW5       30.45S
GUNNISON       FAIR      30  23  74 CALM      30.41S
KREMMLING      FAIR      30  23  74 CALM      30.39S
LEADVILLE      FAIR      26  16  65 NE8       30.44F WCI  18
MONARCH PASS   FAIR      32  10  40 W5        30.63F WCI  27
SALIDA         FAIR      37  25  63 CALM      30.46S
SUNLIGHT       FAIR      37  19  48 CALM      30.51S
WILKERSON PASS FAIR      32  16  51 W7        30.51F WCI  26
$$

COZ069>075-041000-
...SAN LUIS VALLEY/SANGRE DE CRISTO MOUNTAINS...

CITY           SKY/WX    TMP DP  RH WIND       PRES   REMARKS
ALAMOSA        FAIR      33  25  72 S8        30.36R WCI  26
LA VETA PASS   FAIR      36  18  48 CALM      30.46R
SAGUACHE       FAIR      36  23  60 N10       30.39R
$$

COZ035-036-038>040-041000-
...NORTHERN COLORADO FRONT RANGE...

CITY           SKY/WX    TMP DP  RH WIND       PRES   REMARKS
DENVER INTL AP FAIR      46  29  51 SW13      30.25F
DMNS CITY PARK   N/A     47  29  50 SE6G12    30.25F
AURORA         FAIR      42  31  64 S6        30.27F
FRONT RANGE AP NOT AVBL
ERIE MUNI ARPT FAIR      38  34  87 CALM      30.25S
BOULDER MUN AP FAIR      52  30  43 W5        30.24F
CENTENNIAL     FAIR      41  29  62 CALM      30.27F
BROOMFIELD     FAIR      48  32  53 CALM      30.26S
FORT COLLINS   FAIR      45  36  70 N5        30.25S
LONGMONT       FAIR      47  32  55 W8        30.26F
$$

COZ041-046-047-076>085-087-088-041000-
...PIKES PEAK/PALMER DIVIDE AND SOUTHERN FOOTHILLS...

CITY           SKY/WX    TMP DP  RH WIND       PRES   REMARKS
COLO. SPRINGS  FAIR      44  27  51 N7        30.30F
A. F. ACADEMY  FAIR      34  27  75 N9        30.31S WCI  26
SCHRIEVER AFB  NOT AVBL
ELLICOTT       FAIR     N/A N/A N/A N5        30.28F
FALCON         NOT AVBL
FORT CARSON    FAIR      39  28  63 NW9       30.28S
LIMON          FAIR      40  35  83 W10       30.25S
MONUMENT HILL  FAIR      39  27  60 SW8       30.33S
TRINIDAD       FAIR      42  29  59 W16       30.29S
$$

COZ042>045-048>051-090-091-041000-
...NORTHEAST COLORADO...

CITY           SKY/WX    TMP DP  RH WIND       PRES   REMARKS
GREELEY ARPT   FAIR      39  36  87 CALM      30.24S
AKRON          FAIR      44  36  73 W12       30.20S
BURLINGTON     FAIR      42  34  73 W12       30.18S
WRAY           NOT AVBL
STERLING       FAIR      37  36  93 S5        30.18S
HOLYOKE        NOT AVBL
FORT MORGAN    FAIR      44  37  77 W10       30.21S
$$

COZ086-089-092>099-041000-
...SOUTHEAST COLORADO...

CITY           SKY/WX    TMP DP  RH WIND       PRES   REMARKS
PUEBLO         FAIR      45  35  68 W7        30.25S
LA JUNTA       FAIR      45  37  73 W13       30.21S
LAMAR          FAIR      44  37  76 W3        30.17S
SPRINGFIELD      N/A     38  33  82 NW10      30.19F
$$



USA.gov is the U.S. government's official web portal to all federal, state and local government web resources and services.